FW0209 Weather Reports


time (UTC)temp
C
wind
direction
speed
KPH
gust
KPH
rain 1hr
cm
rain 24hr
cm
rain mn
cm
humidity
%
barometer
mb
20260505124514 15 275 3.2 14.5 0.00 2.11 0.53 73 1019.1
20260505123051 13 182 4.8 6.4 0.00 2.11 0.53 73 1019.2
20260505121528 13 175 4.8 9.7 0.00 2.11 0.53 76 1019.5
20260505120030 13 178 4.8 11.3 0.00 2.11 0.53 76 1019.5
20260505114526 13 173 0.0 6.4 0.00 2.11 0.53 76 1019.5
20260505113023 13 171 6.4 12.9 0.00 2.11 0.53 75 1019.6
20260505111526 13 179 3.2 14.5 0.00 2.11 0.53 75 1019.6
20260505101549 12 217 0.0 0.0 0.00 2.11 0.53 82 1019.7
20260505100028 12 229 6.4 9.7 0.00 2.11 0.53 83 1019.9
20260505094527 12 228 4.8 9.7 0.00 2.11 0.53 83 1019.7
20260505093018 12 228 6.4 11.3 0.00 2.11 0.53 84 1019.6
20260505091542 12 229 0.0 0.0 0.00 2.11 0.53 85 1019.6
20260505090017 12 232 0.0 0.0 0.00 2.11 0.53 85 1019.5
20260505084535 11 224 0.0 0.0 0.10 2.11 0.53 87 1019.5
20260505083022 11 226 0.0 0.0 0.20 2.11 0.53 87 1019.5
20260505081519 11 215 0.0 0.0 0.41 2.11 0.53 87 1019.7
20260505080016 11 213 0.0 0.0 0.61 2.11 0.53 87 1019.7
20260505074517 11 215 0.0 0.0 0.79 2.01 0.51 86 1019.6
20260505073016 10 217 0.0 0.0 0.79 1.91 0.48 86 1019.6
20260505071536 11 217 0.0 0.0 0.61 1.70 0.43 85 1019.5
20260505070021 11 218 0.0 0.0 0.41 1.50 0.38 85 1019.7
20260505064538 11 214 0.0 0.0 0.20 1.19 0.30 85 1019.5
20260505063019 11 213 0.0 0.0 0.30 1.09 0.28 85 1019.5
20260505061515 10 214 0.0 0.0 0.30 1.09 0.28 85 1019.3
20260505060032 10 190 0.0 0.0 0.51 1.09 0.28 85 1019.3
20260505054532 11 190 0.0 0.0 0.61 0.99 0.25 85 1019.2
20260505053028 10 221 0.0 0.0 0.51 0.79 0.20 85 1019.0
20260505051526 11 189 0.0 0.0 0.61 0.79 0.20 85 1018.9
20260505041521 11 219 3.2 8.0 0.20 0.20 0.05 82 1018.6
20260505040014 11 219 6.4 12.9 0.00 0.00 0.00 81 1018.4
20260505034536 11 217 3.2 9.7 0.00 0.00 0.00 80 1018.5
20260505033026 11 218 4.8 8.0 0.00 0.00 0.00 79 1018.5
20260505031525 11 216 0.0 3.2 0.00 0.00 0.00 79 1018.5
20260505030043 11 217 0.0 1.6 0.00 0.00 0.00 79 1018.5
20260505024520 11 217 3.2 6.4 0.00 0.00 0.00 79 1018.7
20260505023018 11 215 3.2 6.4 0.00 0.00 0.00 80 1018.9
20260505021515 11 218 1.6 4.8 0.00 0.00 0.00 80 1018.9
20260505020025 11 5 6.4 9.7 0.00 0.00 0.00 80 1019.2
20260505014523 11 14 1.6 8.0 0.00 0.00 0.00 81 1019.4
20260505013023 11 17 3.2 12.9 0.00 0.00 0.00 81 1019.4
20260505011530 11 360 11.3 16.1 0.00 0.00 0.00 80 1019.6
20260505010024 11 216 3.2 11.3 0.00 0.00 0.00 80 1019.7
20260505004517 11 217 6.4 9.7 0.00 0.00 0.00 80 1019.7
20260505003025 11 222 4.8 9.7 0.00 0.00 0.00 81 1019.9
20260505001525 11 221 0.0 6.4 0.00 0.00 0.00 81 1020.1
20260505000018 11 220 6.4 9.7 0.00 0.00 0.00 80 1020.3
20260504234530 11 226 8.0 11.3 0.00 0.00 0.00 79 1020.3
20260504233017 11 236 6.4 11.3 0.00 0.00 0.00 78 1020.4
20260504231531 11 239 4.8 12.9 0.00 0.00 0.00 78 1020.5
20260504230029 11 243 4.8 12.9 0.00 0.00 0.00 77 1020.8
20260504224532 11 253 4.8 8.0 0.00 0.00 0.00 77 1020.7
20260504223050 12 240 0.0 6.4 0.00 0.00 0.00 77 1020.8
20260504221527 12 242 6.4 12.9 0.00 0.00 0.00 77 1020.8
20260504220028 12 243 8.0 16.1 0.00 0.00 0.00 76 1021.0
20260504214526 12 246 6.4 11.3 0.00 0.00 0.00 75 1021.0
20260504213046 12 254 3.2 6.4 0.00 0.00 0.00 75 1020.9
20260504211543 13 265 3.2 12.9 0.00 0.00 0.00 75 1021.0
20260504210036 13 269 3.2 9.7 0.00 0.00 0.00 73 1021.0
20260504204515 13 274 4.8 6.4 0.00 0.00 0.00 71 1021.1
20260504203035 14 287 3.2 8.0 0.00 0.00 0.00 71 1020.9
20260504201552 14 287 8.0 11.3 0.00 0.00 0.00 71 1020.8
20260504200047 15 202 3.2 14.5 0.00 0.00 0.00 72 1021.0
20260504194530 15 247 6.4 16.1 0.00 0.00 0.00 71 1020.8
20260504193026 15 221 8.0 17.7 0.00 0.00 0.00 69 1020.7
20260504191527 16 183 6.4 11.3 0.00 0.00 0.00 66 1020.5
20260504190045 16 220 8.0 14.5 0.00 0.00 0.00 64 1020.4
20260504184522 16 209 6.4 11.3 0.00 0.00 0.00 63 1020.2
20260504183024 16 238 0.0 0.0 0.00 0.00 0.00 62 1020.2
20260504181523 16 236 4.8 8.0 0.00 0.00 0.00 62 1019.9
20260504180017 16 220 3.2 12.9 0.00 0.00 0.00 62 1020.1
20260504174514 17 217 6.4 16.1 0.00 0.00 0.00 61 1020.0
20260504173052 17 260 8.0 14.5 0.00 0.00 0.00 59 1020.1
20260504171529 17 261 6.4 12.9 0.00 0.00 0.00 58 1020.0